Weather in Lazurnoe

Ukraine / Kherson District     46°04′51″N   32°31′12″E
temp.,
°C
wind,
m/s
gust,
m/s
humid.,
%
clouds,
%
prec.,
mm/h
press.,
hPa
HPBL,
m
19 april, mon
mon1900:00+9ne3386100 0.1 101621
03:00+9nw5681100 0.3 101698
06:00+9nnw2278100 0.2 101516
09:00+10ne1176100 0.2 101514
12:00+10ese1178100 0.0 101521
15:00+10nnw017797 0.0 101444
18:00+11wnw0176100 0.0 101314
21:00+10ene3376100 0.0 101218
20 april, tue
tue2000:00+10ene5688100 0.1 100965
03:00+9ene5895100 1.5 1007214
06:00+9nne71197100 8.3 1004337
09:00+9n81096100 17.3 1004290
12:00+9nw7994100 2.7 1006295
15:00+9w7887100 3.3 1008199
18:00+9wsw91385100 0.0 1008227
21:00+9wsw81184100 0.0 1011136
21 april, wed
wed2100:00+9wsw688678 0.0 1012105
03:00+9wsw588923 0.0 1013108
06:00+9wsw468855 0.0 101483
09:00+9sw348789 0.0 101560
12:00+10ssw4586100 0.0 101684
15:00+10sw5789100 0.0 1017127
18:00+10ssw5785100 0.0 1017144
21:00+10ssw6986100 0.0 1018165
22 april, thu
thu2200:00+10sw688920 0.0 1018162
03:00+9sw689177 0.5 1018172
06:00+9ssw56925 0.0 1019121
09:00+10ssw57905 0.1 1020135
12:00+10ssw68890 0.0 1021152
15:00+10ssw57890 0.0 1021136
18:00+10ssw610880 0.0 1021149
21:00+10s710880 0.0 1022143
23 april, fri
fri2300:00+10s610870 0.0 1021154
03:00+10s610860 0.0 1021172
06:00+10s610890 0.0 1020168
09:00+10s710895 0.0 1021198
12:00+10s6118656 0.0 1021216
15:00+10ssw610865 0.0 1020191
18:00+10s610852 0.0 1018172
21:00+10ssw71286100 0.0 1018204